Hourly Weather Allen

Today, 3 March, Wednesday

Time Temperature Precipitation Wind Pressure Humidity
00:00 +9°C° 0 mm 3 mps 747 mmHg 61%
01:00 +8°C° 0 mm 3 mps 747 mmHg 64%
02:00 +8°C° 0 mm 3 mps 747 mmHg 67%
03:00 +7°C° 0 mm 3 mps 747 mmHg 69%
04:00 +7°C° 0 mm 3 mps 747 mmHg 71%
05:00 +7°C° 0 mm 3 mps 747 mmHg 72%
06:00 +5°C° 0 mm 3 mps 747 mmHg 74%
07:00 +8°C° 0 mm 3 mps 748 mmHg 70%
08:00 +9°C° 0 mm 3 mps 748 mmHg 67%
09:00 +10°C° 0 mm 3 mps 748 mmHg 64%
10:00 +12°C° 0 mm 3 mps 748 mmHg 57%
11:00 +14°C° 0 mm 4 mps 748 mmHg 51%
12:00 +17°C° 0 mm 4 mps 748 mmHg 45%
13:00 +17°C° 0 mm 4 mps 747 mmHg 44%
14:00 +18°C° 0 mm 4 mps 746 mmHg 43%
15:00 +19°C° 0 mm 4 mps 746 mmHg 42%
16:00 +18°C° 0 mm 4 mps 746 mmHg 47%
17:00 +17°C° 0 mm 3 mps 745 mmHg 52%
18:00 +16°C° 0 mm 3 mps 745 mmHg 56%
19:00 +14°C° 0 mm 3 mps 746 mmHg 58%
20:00 +13°C° 0 mm 3 mps 746 mmHg 59%
21:00 +12°C° 0 mm 3 mps 747 mmHg 61%
22:00 +12°C° 0 mm 3 mps 747 mmHg 62%
23:00 +11°C° 0 mm 4 mps 747 mmHg 63%

Tomorrow, 4 March, Thursday

Time Temperature Precipitation Wind Pressure Humidity
00:00 +11°C° 0 mm 4 mps 747 mmHg 64%
01:00 +11°C° 0 mm 3 mps 747 mmHg 66%
02:00 +10°C° 0 mm 3 mps 747 mmHg 68%
03:00 +10°C° 0 mm 3 mps 747 mmHg 70%
04:00 +10°C° 0 mm 3 mps 747 mmHg 71%
05:00 +9°C° 0 mm 3 mps 747 mmHg 73%
06:00 +9°C° 0 mm 3 mps 747 mmHg 74%
07:00 +10°C° 0 mm 4 mps 747 mmHg 73%
08:00 +11°C° 0 mm 4 mps 747 mmHg 72%
09:00 +12°C° 0 mm 4 mps 747 mmHg 71%
10:00 +13°C° 0 mm 5 mps 747 mmHg 68%
11:00 +15°C° 0 mm 5 mps 747 mmHg 64%
12:00 +17°C° 0 mm 5 mps 746 mmHg 61%
13:00 +19°C° 0 mm 6 mps 745 mmHg 59%
14:00 +19°C° 0 mm 6 mps 745 mmHg 57%
15:00 +20°C° 0 mm 7 mps 744 mmHg 56%
16:00 +19°C° 0 mm 6 mps 743 mmHg 58%
17:00 +17°C° 0 mm 5 mps 743 mmHg 60%
18:00 +17°C° 0 mm 5 mps 743 mmHg 62%
19:00 +16°C° 0 mm 5 mps 742 mmHg 63%
20:00 +15°C° 0 mm 5 mps 742 mmHg 64%
21:00 +14°C° 0 mm 5 mps 742 mmHg 64%
22:00 +14°C° 0 mm 6 mps 742 mmHg 66%
23:00 +14°C° 0 mm 6 mps 742 mmHg 68%

Day after tomorrow, 5 March, Friday

Time Temperature Precipitation Wind Pressure Humidity
00:00 +13°C° 0 mm 6 mps 742 mmHg 70%
01:00 +13°C° 0.2 mm 6 mps 742 mmHg 74%
02:00 +13°C° 0.2 mm 6 mps 741 mmHg 78%
03:00 +11°C° 0.2 mm 6 mps 741 mmHg 81%
04:00 +11°C° 0 mm 6 mps 741 mmHg 83%
05:00 +11°C° 0 mm 6 mps 741 mmHg 85%
06:00 +12°C° 0 mm 5 mps 741 mmHg 87%
07:00 +12°C° 0 mm 5 mps 741 mmHg 87%
08:00 +12°C° 0 mm 5 mps 741 mmHg 86%
09:00 +13°C° 0 mm 5 mps 741 mmHg 86%
10:00 +14°C° 0 mm 4 mps 742 mmHg 82%
11:00 +14°C° 0 mm 3 mps 742 mmHg 79%
12:00 +16°C° 0 mm 2 mps 742 mmHg 76%
13:00 +16°C° 0 mm 3 mps 742 mmHg 77%
14:00 +15°C° 0 mm 4 mps 742 mmHg 78%
15:00 +15°C° 0 mm 5 mps 742 mmHg 79%
16:00 +14°C° 0 mm 5 mps 743 mmHg 81%
17:00 +13°C° 0 mm 5 mps 744 mmHg 83%
18:00 +12°C° 0 mm 5 mps 744 mmHg 84%
19:00 +12°C° 0 mm 5 mps 745 mmHg 84%
20:00 +12°C° 0 mm 5 mps 746 mmHg 83%
21:00 +12°C° 0 mm 5 mps 747 mmHg 82%
22:00 +11°C° 0 mm 4 mps 747 mmHg 84%
23:00 +11°C° 0 mm 4 mps 748 mmHg 85%

6 March, Saturday

Time Temperature Precipitation Wind Pressure Humidity
00:00 +11°C° 0 mm 4 mps 748 mmHg 86%
01:00 +10°C° 0 mm 3 mps 748 mmHg 88%
02:00 +10°C° 0 mm 3 mps 748 mmHg 89%
03:00 +10°C° 0 mm 2 mps 748 mmHg 90%
04:00 +10°C° 0 mm 3 mps 749 mmHg 91%
05:00 +10°C° 0 mm 3 mps 749 mmHg 91%
06:00 +10°C° 0 mm 3 mps 750 mmHg 91%
07:00 +10°C° 0 mm 3 mps 750 mmHg 88%
08:00 +10°C° 0 mm 3 mps 751 mmHg 84%
09:00 +10°C° 0 mm 3 mps 751 mmHg 81%
10:00 +11°C° 0 mm 3 mps 751 mmHg 76%
11:00 +12°C° 0 mm 3 mps 751 mmHg 71%
12:00 +14°C° 0 mm 3 mps 751 mmHg 65%
13:00 +14°C° 0 mm 3 mps 750 mmHg 64%
14:00 +15°C° 0 mm 2 mps 750 mmHg 63%
15:00 +15°C° 0 mm 2 mps 749 mmHg 62%
16:00 +15°C° 0 mm 2 mps 749 mmHg 64%
17:00 +14°C° 0 mm 2 mps 749 mmHg 65%
18:00 +14°C° 0 mm 2 mps 749 mmHg 67%
19:00 +13°C° 0 mm 2 mps 749 mmHg 69%
20:00 +12°C° 0 mm 2 mps 750 mmHg 70%
21:00 +12°C° 0 mm 2 mps 750 mmHg 72%
22:00 +10°C° 0 mm 2 mps 750 mmHg 73%
23:00 +10°C° 0 mm 2 mps 750 mmHg 74%

7 March, Sunday

Time Temperature Precipitation Wind Pressure Humidity
00:00 +9°C° 0 mm 2 mps 750 mmHg 76%
01:00 +9°C° 0 mm 2 mps 750 mmHg 77%
02:00 +9°C° 0 mm 2 mps 750 mmHg 78%
03:00 +9°C° 0 mm 2 mps 750 mmHg 78%
04:00 +8°C° 0 mm 2 mps 750 mmHg 80%
05:00 +8°C° 0 mm 2 mps 751 mmHg 82%
06:00 +8°C° 0 mm 2 mps 751 mmHg 84%
07:00 +9°C° 0 mm 2 mps 751 mmHg 80%
08:00 +10°C° 0 mm 3 mps 752 mmHg 77%
09:00 +11°C° 0 mm 3 mps 752 mmHg 73%
10:00 +12°C° 0 mm 4 mps 752 mmHg 66%
11:00 +14°C° 0 mm 4 mps 752 mmHg 59%
12:00 +15°C° 0 mm 4 mps 752 mmHg 52%
13:00 +17°C° 0 mm 4 mps 751 mmHg 49%
14:00 +17°C° 0 mm 4 mps 751 mmHg 46%
15:00 +18°C° 0 mm 4 mps 750 mmHg 43%
16:00 +17°C° 0 mm 4 mps 750 mmHg 46%
17:00 +17°C° 0 mm 3 mps 750 mmHg 49%
18:00 +16°C° 0 mm 3 mps 750 mmHg 52%
19:00 +14°C° 0 mm 3 mps 751 mmHg 54%
20:00 +13°C° 0 mm 3 mps 751 mmHg 56%
21:00 +12°C° 0 mm 3 mps 751 mmHg 59%
22:00 +11°C° 0 mm 3 mps 752 mmHg 60%
23:00 +11°C° 0 mm 3 mps 752 mmHg 62%

8 March, Monday

Time Temperature Precipitation Wind Pressure Humidity
00:00 +10°C° 0 mm 3 mps 752 mmHg 64%
01:00 +10°C° 0 mm 3 mps 752 mmHg 65%
02:00 +9°C° 0 mm 3 mps 752 mmHg 66%
03:00 +9°C° 0 mm 3 mps 751 mmHg 67%
04:00 +9°C° 0 mm 3 mps 752 mmHg 68%
05:00 +8°C° 0 mm 3 mps 752 mmHg 70%
06:00 +8°C° 0 mm 3 mps 752 mmHg 72%
07:00 +9°C° 0 mm 3 mps 752 mmHg 71%
08:00 +10°C° 0 mm 3 mps 753 mmHg 70%
09:00 +12°C° 0 mm 3 mps 753 mmHg 69%
10:00 +13°C° 0 mm 4 mps 753 mmHg 63%
11:00 +15°C° 0 mm 5 mps 753 mmHg 58%
12:00 +17°C° 0 mm 5 mps 752 mmHg 52%
13:00 +17°C° 0 mm 5 mps 752 mmHg 51%
14:00 +19°C° 0 mm 5 mps 751 mmHg 50%
15:00 +20°C° 0 mm 5 mps 750 mmHg 48%
16:00 +19°C° 0 mm 5 mps 750 mmHg 53%
17:00 +17°C° 0 mm 5 mps 750 mmHg 57%
18:00 +18°C° 0 mm 4 mps 749 mmHg 62%
19:00 +16°C° 0 mm 5 mps 750 mmHg 65%
20:00 +16°C° 0 mm 5 mps 750 mmHg 67%
21:00 +16°C° 0 mm 5 mps 750 mmHg 70%
22:00 +15°C° 0 mm 6 mps 750 mmHg 68%
23:00 +15°C° 0 mm 6 mps 750 mmHg 67%
Show more